| time (UTC) | temp F | wind direction | speed MPH | gust MPH | rain 1hr in | rain 24hr in | rain mn in | humidity % | barometer mb |
| 20260506062351 | 93 | 0.0 | 0.0 | 0.00 | 0.00 | 0.00 | 74 | 1002.7 | |
| 20260506062150 | 92 | 0.0 | 0.0 | 0.00 | 0.00 | 0.00 | 74 | 1002.8 | |
| 20260506061950 | 92 | 0.0 | 0.0 | 0.00 | 0.00 | 0.00 | 73 | 1002.8 | |
| 20260506061749 | 92 | 0.0 | 0.0 | 0.00 | 0.00 | 0.00 | 73 | 1002.8 | |
| 20260506061548 | 92 | 0.0 | 0.0 | 0.00 | 0.00 | 0.00 | 73 | 1002.8 | |
| 20260506061347 | 92 | 0.0 | 0.0 | 0.00 | 0.00 | 0.00 | 74 | 1002.9 | |
| 20260506061147 | 92 | 0.0 | 0.0 | 0.00 | 0.00 | 0.00 | 75 | 1002.8 | |
| 20260506060945 | 92 | 0.0 | 0.0 | 0.00 | 0.00 | 0.00 | 74 | 1002.8 | |
| 20260506060746 | 92 | 0.0 | 0.0 | 0.00 | 0.00 | 0.00 | 73 | 1002.9 | |
| 20260506060543 | 93 | 0.0 | 0.0 | 0.00 | 0.00 | 0.00 | 74 | 1002.8 | |
| 20260506060342 | 92 | 0.0 | 0.0 | 0.00 | 0.00 | 0.00 | 75 | 1002.9 | |
| 20260506060142 | 92 | 0.0 | 0.0 | 0.00 | 0.00 | 0.00 | 75 | 1002.9 | |
| 20260506051318 | 93 | 0.0 | 0.0 | 0.00 | 0.00 | 0.00 | 77 | 1003.2 | |
| 20260506051117 | 93 | 0.0 | 0.0 | 0.00 | 0.00 | 0.00 | 77 | 1003.2 | |
| 20260506050917 | 93 | 0.0 | 0.0 | 0.00 | 0.00 | 0.00 | 76 | 1003.2 | |
| 20260506050716 | 93 | 0.0 | 0.0 | 0.00 | 0.00 | 0.00 | 77 | 1003.2 | |
| 20260506050515 | 93 | 0.0 | 0.0 | 0.00 | 0.00 | 0.00 | 77 | 1003.3 | |
| 20260506050314 | 93 | 0.0 | 0.0 | 0.00 | 0.00 | 0.00 | 77 | 1003.3 | |
| 20260506050113 | 93 | 0.0 | 0.0 | 0.00 | 0.00 | 0.00 | 77 | 1003.3 | |
| 20260506045108 | 93 | 0.0 | 0.0 | 0.00 | 0.00 | 0.00 | 77 | 1003.4 | |
| 20260506044907 | 93 | 0.0 | 0.0 | 0.00 | 0.00 | 0.00 | 77 | 1003.3 | |
| 20260506044706 | 93 | 0.0 | 0.0 | 0.00 | 0.00 | 0.00 | 77 | 1003.3 | |
| 20260506044505 | 93 | 0.0 | 0.0 | 0.00 | 0.00 | 0.00 | 78 | 1003.4 | |
| 20260506044304 | 93 | 0.0 | 0.0 | 0.00 | 0.00 | 0.00 | 78 | 1003.3 | |
| 20260506044103 | 93 | 0.0 | 0.0 | 0.00 | 0.00 | 0.00 | 78 | 1003.4 | |
| 20260506043902 | 93 | 0.0 | 0.0 | 0.00 | 0.00 | 0.00 | 77 | 1003.5 | |
| 20260506043701 | 93 | 0.0 | 0.0 | 0.00 | 0.00 | 0.00 | 77 | 1003.5 | |
| 20260506043501 | 93 | 0.0 | 0.0 | 0.00 | 0.00 | 0.00 | 78 | 1003.5 | |
| 20260506043300 | 93 | 0.0 | 0.0 | 0.00 | 0.00 | 0.00 | 77 | 1003.5 | |
| 20260506043059 | 94 | 0.0 | 0.0 | 0.00 | 0.00 | 0.00 | 74 | 1003.6 | |
| 20260506042858 | 93 | 0.0 | 0.0 | 0.00 | 0.00 | 0.00 | 76 | 1003.5 | |
| 20260506042657 | 94 | 0.0 | 0.0 | 0.00 | 0.00 | 0.00 | 75 | 1003.6 | |
| 20260506042456 | 93 | 0.0 | 0.0 | 0.00 | 0.00 | 0.00 | 76 | 1003.6 | |
| 20260506042255 | 93 | 0.0 | 0.0 | 0.00 | 0.00 | 0.00 | 75 | 1003.7 | |
| 20260506042054 | 94 | 0.0 | 0.0 | 0.00 | 0.00 | 0.00 | 75 | 1003.7 | |
| 20260506041853 | 94 | 0.0 | 0.0 | 0.00 | 0.00 | 0.00 | 74 | 1003.7 | |
| 20260506041652 | 94 | 0.0 | 0.0 | 0.00 | 0.00 | 0.00 | 74 | 1003.7 | |
| 20260506041451 | 94 | 0.0 | 0.0 | 0.00 | 0.00 | 0.00 | 74 | 1003.8 | |
| 20260506041250 | 93 | 0.0 | 0.0 | 0.00 | 0.00 | 0.00 | 74 | 1003.8 | |
| 20260506041049 | 94 | 0.0 | 0.0 | 0.00 | 0.00 | 0.00 | 74 | 1003.9 | |
| 20260506040848 | 93 | 0.0 | 0.0 | 0.00 | 0.00 | 0.00 | 75 | 1003.9 | |
| 20260506040647 | 93 | 0.0 | 0.0 | 0.00 | 0.00 | 0.00 | 75 | 1003.9 | |
| 20260506040446 | 94 | 0.0 | 0.0 | 0.00 | 0.00 | 0.00 | 74 | 1004.0 | |
| 20260506040246 | 94 | 0.0 | 0.0 | 0.00 | 0.00 | 0.00 | 74 | 1004.1 | |
| 20260506040045 | 93 | 0.0 | 0.0 | 0.00 | 0.00 | 0.00 | 74 | 1004.1 | |
| 20260506035844 | 94 | 0.0 | 0.0 | 0.00 | 0.00 | 0.00 | 75 | 1004.1 | |
| 20260506035643 | 94 | 0.0 | 0.0 | 0.00 | 0.00 | 0.00 | 75 | 1004.2 | |
| 20260506035442 | 94 | 0.0 | 0.0 | 0.00 | 0.00 | 0.00 | 74 | 1004.3 | |
| 20260506035241 | 93 | 0.0 | 0.0 | 0.00 | 0.00 | 0.00 | 74 | 1004.2 | |
| 20260506035040 | 94 | 0.0 | 0.0 | 0.00 | 0.00 | 0.00 | 73 | 1004.3 | |
| 20260506034839 | 94 | 0.0 | 0.0 | 0.00 | 0.00 | 0.00 | 73 | 1004.3 | |
| 20260506034638 | 94 | 0.0 | 0.0 | 0.00 | 0.00 | 0.00 | 73 | 1004.4 | |
| 20260506034438 | 95 | 0.0 | 0.0 | 0.00 | 0.00 | 0.00 | 72 | 1004.4 | |
| 20260506034236 | 94 | 0.0 | 0.0 | 0.00 | 0.00 | 0.00 | 74 | 1004.4 | |
| 20260506034035 | 94 | 0.0 | 0.0 | 0.00 | 0.00 | 0.00 | 73 | 1004.3 | |
| 20260506033834 | 94 | 0.0 | 0.0 | 0.00 | 0.00 | 0.00 | 74 | 1004.5 | |
| 20260506033633 | 94 | 0.0 | 0.0 | 0.00 | 0.00 | 0.00 | 74 | 1004.5 | |
| 20260506033432 | 94 | 0.0 | 0.0 | 0.00 | 0.00 | 0.00 | 74 | 1004.6 | |
| 20260506033231 | 94 | 0.0 | 0.0 | 0.00 | 0.00 | 0.00 | 74 | 1004.6 | |
| 20260506033030 | 93 | 0.0 | 0.0 | 0.00 | 0.00 | 0.00 | 76 | 1004.7 | |
| 20260506032830 | 93 | 0.0 | 0.0 | 0.00 | 0.00 | 0.00 | 78 | 1004.7 | |
| 20260506032629 | 93 | 0.0 | 0.0 | 0.00 | 0.00 | 0.00 | 77 | 1004.8 | |
| 20260506032428 | 93 | 0.0 | 0.0 | 0.00 | 0.00 | 0.00 | 76 | 1004.8 | |
| 20260506032227 | 94 | 0.0 | 0.0 | 0.00 | 0.00 | 0.00 | 74 | 1004.8 | |
| 20260506032026 | 95 | 0.0 | 0.0 | 0.00 | 0.00 | 0.00 | 74 | 1004.8 | |
| 20260506031825 | 95 | 0.0 | 0.0 | 0.00 | 0.00 | 0.00 | 73 | 1004.9 | |
| 20260506031624 | 95 | 0.0 | 0.0 | 0.00 | 0.00 | 0.00 | 72 | 1004.9 | |
| 20260506031423 | 94 | 0.0 | 0.0 | 0.00 | 0.00 | 0.00 | 72 | 1004.9 | |
| 20260506031222 | 95 | 0.0 | 0.0 | 0.00 | 0.00 | 0.00 | 71 | 1004.9 | |
| 20260506031021 | 95 | 0.0 | 0.0 | 0.00 | 0.00 | 0.00 | 71 | 1004.9 | |
| 20260506030820 | 95 | 0.0 | 0.0 | 0.00 | 0.00 | 0.00 | 70 | 1005.0 | |
| 20260506030619 | 95 | 0.0 | 0.0 | 0.00 | 0.00 | 0.00 | 69 | 1005.0 | |
| 20260506030418 | 95 | 0.0 | 0.0 | 0.00 | 0.00 | 0.00 | 71 | 1005.0 | |
| 20260506030217 | 95 | 0.0 | 0.0 | 0.00 | 0.00 | 0.00 | 70 | 1005.0 | |
| 20260506030016 | 95 | 0.0 | 0.0 | 0.00 | 0.00 | 0.00 | 70 | 1005.1 | |
| 20260506025815 | 94 | 0.0 | 0.0 | 0.00 | 0.00 | 0.00 | 72 | 1005.1 | |
| 20260506025615 | 94 | 0.0 | 0.0 | 0.00 | 0.00 | 0.00 | 74 | 1005.1 | |
| 20260506025414 | 94 | 0.0 | 0.0 | 0.00 | 0.00 | 0.00 | 73 | 1005.2 | |
| 20260506025213 | 94 | 0.0 | 0.0 | 0.00 | 0.00 | 0.00 | 72 | 1005.3 | |
| 20260506025012 | 94 | 0.0 | 0.0 | 0.00 | 0.00 | 0.00 | 73 | 1005.2 | |
| 20260506024811 | 94 | 0.0 | 0.0 | 0.00 | 0.00 | 0.00 | 74 | 1005.4 | |
| 20260506024610 | 94 | 0.0 | 0.0 | 0.00 | 0.00 | 0.00 | 72 | 1005.3 | |
| 20260506024409 | 94 | 0.0 | 0.0 | 0.00 | 0.00 | 0.00 | 72 | 1005.3 | |
| 20260506024208 | 94 | 0.0 | 0.0 | 0.00 | 0.00 | 0.00 | 71 | 1005.4 | |
| 20260506024007 | 93 | 0.0 | 0.0 | 0.00 | 0.00 | 0.00 | 74 | 1005.5 | |
| 20260506023806 | 93 | 0.0 | 0.0 | 0.00 | 0.00 | 0.00 | 72 | 1005.5 | |
| 20260506023605 | 94 | 0.0 | 0.0 | 0.00 | 0.00 | 0.00 | 74 | 1005.5 | |
| 20260506023404 | 94 | 0.0 | 0.0 | 0.00 | 0.00 | 0.00 | 73 | 1005.6 | |
| 20260506023203 | 94 | 0.0 | 0.0 | 0.00 | 0.00 | 0.00 | 72 | 1005.7 | |
| 20260506023002 | 94 | 0.0 | 0.0 | 0.00 | 0.00 | 0.00 | 72 | 1005.7 | |
| 20260506022801 | 94 | 0.0 | 0.0 | 0.00 | 0.00 | 0.00 | 71 | 1005.7 | |
| 20260506022600 | 94 | 0.0 | 0.0 | 0.00 | 0.00 | 0.00 | 71 | 1005.7 | |
| 20260506022359 | 94 | 0.0 | 0.0 | 0.00 | 0.00 | 0.00 | 71 | 1005.8 | |
| 20260506022158 | 94 | 0.0 | 0.0 | 0.00 | 0.00 | 0.00 | 71 | 1005.8 | |
| 20260506021958 | 94 | 0.0 | 0.0 | 0.00 | 0.00 | 0.00 | 71 | 1005.9 | |
| 20260506021757 | 94 | 0.0 | 0.0 | 0.00 | 0.00 | 0.00 | 70 | 1005.9 | |
| 20260506021556 | 93 | 0.0 | 0.0 | 0.00 | 0.00 | 0.00 | 71 | 1006.0 | |
| 20260506021355 | 93 | 0.0 | 0.0 | 0.00 | 0.00 | 0.00 | 73 | 1006.0 | |
| 20260506021154 | 93 | 0.0 | 0.0 | 0.00 | 0.00 | 0.00 | 72 | 1006.0 | |
| 20260506020953 | 93 | 0.0 | 0.0 | 0.00 | 0.00 | 0.00 | 74 | 1006.0 | |
| 20260506020752 | 93 | 0.0 | 0.0 | 0.00 | 0.00 | 0.00 | 74 | 1006.2 | |
| 20260506020551 | 93 | 0.0 | 0.0 | 0.00 | 0.00 | 0.00 | 74 | 1006.2 | |
| 20260506020350 | 93 | 0.0 | 0.0 | 0.00 | 0.00 | 0.00 | 73 | 1006.2 | |
| 20260506020149 | 93 | 0.0 | 0.0 | 0.00 | 0.00 | 0.00 | 73 | 1006.3 | |
| 20260506015948 | 93 | 0.0 | 0.0 | 0.00 | 0.00 | 0.00 | 75 | 1006.3 | |
| 20260506015747 | 94 | 0.0 | 0.0 | 0.00 | 0.00 | 0.00 | 75 | 1006.3 | |
| 20260506015546 | 93 | 0.0 | 0.0 | 0.00 | 0.00 | 0.00 | 75 | 1006.4 | |
| 20260506015345 | 94 | 0.0 | 0.0 | 0.00 | 0.00 | 0.00 | 75 | 1006.4 | |
| 20260506015144 | 94 | 0.0 | 0.0 | 0.00 | 0.00 | 0.00 | 76 | 1006.4 | |
| 20260506014943 | 93 | 0.0 | 0.0 | 0.00 | 0.00 | 0.00 | 74 | 1006.4 | |
| 20260506014742 | 93 | 0.0 | 0.0 | 0.00 | 0.00 | 0.00 | 75 | 1006.5 | |
| 20260506014541 | 93 | 0.0 | 0.0 | 0.00 | 0.00 | 0.00 | 77 | 1006.5 | |
| 20260506014341 | 93 | 0.0 | 0.0 | 0.00 | 0.00 | 0.00 | 78 | 1006.6 | |
| 20260506014140 | 93 | 0.0 | 0.0 | 0.00 | 0.00 | 0.00 | 78 | 1006.8 | |
| 20260506013939 | 93 | 0.0 | 0.0 | 0.00 | 0.00 | 0.00 | 77 | 1006.6 | |
| 20260506013738 | 93 | 0.0 | 0.0 | 0.00 | 0.00 | 0.00 | 77 | 1006.6 | |
| 20260506013537 | 93 | 0.0 | 0.0 | 0.00 | 0.00 | 0.00 | 80 | 1006.7 | |
| 20260506013336 | 92 | 0.0 | 0.0 | 0.00 | 0.00 | 0.00 | 78 | 1006.7 | |
| 20260506013135 | 93 | 0.0 | 0.0 | 0.00 | 0.00 | 0.00 | 82 | 1006.8 | |
| 20260506012934 | 92 | 0.0 | 0.0 | 0.00 | 0.00 | 0.00 | 79 | 1006.8 | |
| 20260506012733 | 92 | 0.0 | 0.0 | 0.00 | 0.00 | 0.00 | 79 | 1006.8 | |
| 20260506012532 | 92 | 0.0 | 0.0 | 0.00 | 0.00 | 0.00 | 80 | 1007.1 | |
| 20260506012331 | 92 | 0.0 | 0.0 | 0.00 | 0.00 | 0.00 | 80 | 1007.0 | |
| 20260506012130 | 92 | 0.0 | 0.0 | 0.00 | 0.00 | 0.00 | 81 | 1007.1 | |
| 20260506011929 | 92 | 0.0 | 0.0 | 0.00 | 0.00 | 0.00 | 82 | 1007.1 | |
| 20260506011728 | 92 | 0.0 | 0.0 | 0.00 | 0.00 | 0.00 | 83 | 1007.2 | |
| 20260506011527 | 91 | 0.0 | 0.0 | 0.00 | 0.00 | 0.00 | 86 | 1007.2 | |
| 20260506011326 | 91 | 0.0 | 0.0 | 0.00 | 0.00 | 0.00 | 86 | 1007.1 | |
| 20260506011126 | 91 | 0.0 | 0.0 | 0.00 | 0.00 | 0.00 | 87 | 1007.2 | |
| 20260506010925 | 91 | 0.0 | 0.0 | 0.00 | 0.00 | 0.00 | 86 | 1007.3 | |
| 20260506010724 | 91 | 0.0 | 0.0 | 0.00 | 0.00 | 0.00 | 87 | 1007.3 | |
| 20260506010523 | 92 | 0.0 | 0.0 | 0.00 | 0.00 | 0.00 | 86 | 1007.4 | |
| 20260506010322 | 91 | 0.0 | 0.0 | 0.00 | 0.00 | 0.00 | 86 | 1007.4 | |
| 20260506010121 | 92 | 0.0 | 0.0 | 0.00 | 0.00 | 0.00 | 86 | 1007.5 | |
| 20260506005920 | 92 | 0.0 | 0.0 | 0.00 | 0.00 | 0.00 | 85 | 1007.6 | |
| 20260506005719 | 91 | 0.0 | 0.0 | 0.00 | 0.00 | 0.00 | 86 | 1007.6 | |
| 20260506005518 | 92 | 0.0 | 0.0 | 0.00 | 0.00 | 0.00 | 86 | 1007.7 | |
| 20260506005317 | 91 | 0.0 | 0.0 | 0.00 | 0.00 | 0.00 | 88 | 1007.7 | |
| 20260506005116 | 91 | 0.0 | 0.0 | 0.00 | 0.00 | 0.00 | 89 | 1007.7 | |
| 20260506004915 | 91 | 0.0 | 0.0 | 0.00 | 0.00 | 0.00 | 89 | 1007.8 | |
| 20260506004714 | 90 | 0.0 | 0.0 | 0.00 | 0.00 | 0.00 | 91 | 1007.9 | |
| 20260506004513 | 90 | 0.0 | 0.0 | 0.00 | 0.00 | 0.00 | 91 | 1007.8 | |
| 20260506004312 | 90 | 0.0 | 0.0 | 0.00 | 0.00 | 0.00 | 93 | 1007.8 | |
| 20260506004111 | 89 | 0.0 | 0.0 | 0.00 | 0.00 | 0.00 | 95 | 1007.9 | |
| 20260506003910 | 88 | 0.0 | 0.0 | 0.00 | 0.00 | 0.00 | 97 | 1007.9 | |
| 20260506003709 | 88 | 0.0 | 0.0 | 0.00 | 0.00 | 0.00 | 96 | 1007.9 | |
| 20260506003509 | 88 | 0.0 | 0.0 | 0.00 | 0.00 | 0.00 | 97 | 1007.9 | |
| 20260506003308 | 88 | 0.0 | 0.0 | 0.00 | 0.00 | 0.00 | 98 | 1008.0 | |
| 20260506003107 | 88 | 0.0 | 0.0 | 0.00 | 0.00 | 0.00 | 100 | 1007.9 | |
| 20260506002906 | 88 | 0.0 | 0.0 | 0.00 | 0.00 | 0.00 | 99 | 1007.9 | |
| 20260506002705 | 87 | 0.0 | 0.0 | 0.00 | 0.00 | 0.00 | 99 | 1007.9 | |
| 20260506002504 | 88 | 0.0 | 0.0 | 0.00 | 0.00 | 0.00 | 98 | 1007.9 | |
| 20260506002305 | 87 | 0.0 | 0.0 | 0.00 | 0.00 | 0.00 | 100 | 1007.9 | |
| 20260506002102 | 88 | 0.0 | 0.0 | 0.00 | 0.00 | 0.00 | 99 | 1008.0 | |
| 20260506001901 | 87 | 0.0 | 0.0 | 0.00 | 0.00 | 0.00 | 98 | 1008.0 | |
| 20260506001700 | 88 | 0.0 | 0.0 | 0.00 | 0.00 | 0.00 | 97 | 1008.0 | |
| 20260506001459 | 88 | 0.0 | 0.0 | 0.00 | 0.00 | 0.00 | 98 | 1008.0 | |
| 20260506001258 | 88 | 0.0 | 0.0 | 0.00 | 0.00 | 0.00 | 97 | 1008.0 | |
| 20260506001057 | 88 | 0.0 | 0.0 | 0.00 | 0.00 | 0.00 | 98 | 1008.2 | |
| 20260506000856 | 88 | 0.0 | 0.0 | 0.00 | 0.00 | 0.00 | 98 | 1008.1 | |
| 20260506000655 | 89 | 0.0 | 0.0 | 0.00 | 0.00 | 0.00 | 95 | 1008.2 | |
| 20260506000454 | 90 | 0.0 | 0.0 | 0.00 | 0.00 | 0.00 | 93 | 1008.2 | |
| 20260506000255 | 91 | 0.0 | 0.0 | 0.00 | 0.00 | 0.00 | 89 | 1008.3 | |
| 20260506000052 | 92 | 0.0 | 0.0 | 0.00 | 0.00 | 0.00 | 88 | 1008.3 | |
| 20260505235852 | 92 | 0.0 | 0.0 | 0.00 | 0.00 | 0.00 | 88 | 1008.4 | |
| 20260505235651 | 93 | 0.0 | 0.0 | 0.00 | 0.00 | 0.00 | 84 | 1008.4 | |
| 20260505235450 | 91 | 0.0 | 0.0 | 0.00 | 0.00 | 0.00 | 90 | 1008.4 | |
| 20260505235249 | 90 | 0.0 | 0.0 | 0.00 | 0.00 | 0.00 | 92 | 1008.3 | |
| 20260505235048 | 89 | 0.0 | 0.0 | 0.00 | 0.00 | 0.00 | 95 | 1008.4 | |
| 20260505234847 | 89 | 0.0 | 0.0 | 0.00 | 0.00 | 0.00 | 95 | 1008.4 | |
| 20260505234646 | 89 | 0.0 | 0.0 | 0.00 | 0.00 | 0.00 | 97 | 1008.5 | |
| 20260505234445 | 88 | 0.0 | 0.0 | 0.00 | 0.00 | 0.00 | 98 | 1008.5 | |
| 20260505234244 | 88 | 0.0 | 0.0 | 0.00 | 0.00 | 0.00 | 100 | 1008.4 | |
| 20260505234043 | 88 | 0.0 | 0.0 | 0.00 | 0.00 | 0.00 | 100 | 1008.4 | |
| 20260505233842 | 87 | 0.0 | 0.0 | 0.00 | 0.00 | 0.00 | 100 | 1008.4 | |
| 20260505233641 | 87 | 0.0 | 0.0 | 0.00 | 0.00 | 0.00 | 100 | 1008.4 | |
| 20260505233440 | 86 | 0.0 | 0.0 | 0.00 | 0.00 | 0.00 | 100 | 1008.5 | |
| 20260505233239 | 86 | 0.0 | 0.0 | 0.00 | 0.00 | 0.00 | 100 | 1008.6 | |
| 20260505233038 | 86 | 0.0 | 0.0 | 0.00 | 0.00 | 0.00 | 100 | 1008.5 | |
| 20260505232837 | 86 | 0.0 | 0.0 | 0.00 | 0.00 | 0.00 | 100 | 1008.6 | |
| 20260505232636 | 86 | 0.0 | 0.0 | 0.00 | 0.00 | 0.00 | 100 | 1008.6 | |
| 20260505232436 | 85 | 0.0 | 0.0 | 0.00 | 0.00 | 0.00 | 100 | 1008.6 | |
| 20260505232235 | 86 | 0.0 | 0.0 | 0.00 | 0.00 | 0.00 | 100 | 1008.6 | |
| 20260505232034 | 86 | 0.0 | 0.0 | 0.00 | 0.00 | 0.00 | 100 | 1008.6 | |
| 20260505231833 | 85 | 0.0 | 0.0 | 0.00 | 0.00 | 0.00 | 100 | 1008.7 | |
| 20260505231632 | 85 | 0.0 | 0.0 | 0.00 | 0.00 | 0.00 | 100 | 1008.7 | |
| 20260505231431 | 86 | 0.0 | 0.0 | 0.00 | 0.00 | 0.00 | 100 | 1008.7 | |
| 20260505231230 | 85 | 0.0 | 0.0 | 0.00 | 0.00 | 0.00 | 100 | 1008.7 | |
| 20260505231029 | 85 | 0.0 | 0.0 | 0.00 | 0.00 | 0.00 | 100 | 1008.7 | |
| 20260505230828 | 84 | 0.0 | 0.0 | 0.00 | 0.00 | 0.00 | 100 | 1008.7 | |
| 20260505230627 | 84 | 0.0 | 0.0 | 0.00 | 0.00 | 0.00 | 100 | 1008.8 | |
| 20260505230426 | 83 | 0.0 | 0.0 | 0.00 | 0.00 | 0.00 | 100 | 1008.8 | |
| 20260505230225 | 84 | 0.0 | 0.0 | 0.00 | 0.00 | 0.00 | 100 | 1008.8 | |
| 20260505230024 | 85 | 0.0 | 0.0 | 0.00 | 0.00 | 0.00 | 100 | 1008.7 | |
| 20260505225823 | 84 | 0.0 | 0.0 | 0.00 | 0.00 | 0.00 | 100 | 1008.7 | |
| 20260505225622 | 84 | 0.0 | 0.0 | 0.00 | 0.00 | 0.00 | 100 | 1008.7 | |
| 20260505225421 | 84 | 0.0 | 0.0 | 0.00 | 0.00 | 0.00 | 100 | 1008.7 | |
| 20260505225220 | 84 | 0.0 | 0.0 | 0.00 | 0.00 | 0.00 | 100 | 1008.7 | |
| 20260505225020 | 83 | 0.0 | 0.0 | 0.00 | 0.00 | 0.00 | 100 | 1008.5 | |
| 20260505224819 | 83 | 0.0 | 0.0 | 0.00 | 0.00 | 0.00 | 100 | 1008.4 | |
| 20260505224618 | 86 | 0.0 | 0.0 | 0.00 | 0.00 | 0.00 | 100 | 1008.4 | |
| 20260505224417 | 85 | 0.0 | 0.0 | 0.00 | 0.00 | 0.00 | 100 | 1008.4 | |
| 20260505224216 | 84 | 0.0 | 0.0 | 0.00 | 0.00 | 0.00 | 100 | 1008.4 | |
| 20260505224015 | 85 | 0.0 | 0.0 | 0.00 | 0.00 | 0.00 | 100 | 1008.3 | |
| 20260505223814 | 84 | 0.0 | 0.0 | 0.00 | 0.00 | 0.00 | 100 | 1008.2 | |
| 20260505223613 | 84 | 0.0 | 0.0 | 0.00 | 0.00 | 0.00 | 100 | 1008.2 | |
| 20260505223412 | 84 | 0.0 | 0.0 | 0.00 | 0.00 | 0.00 | 100 | 1008.1 | |
| 20260505223211 | 84 | 0.0 | 0.0 | 0.00 | 0.00 | 0.00 | 100 | 1008.1 | |
| 20260505223010 | 85 | 0.0 | 0.0 | 0.00 | 0.00 | 0.00 | 100 | 1008.1 | |
| 20260505222809 | 85 | 0.0 | 0.0 | 0.00 | 0.00 | 0.00 | 100 | 1008.1 | |
| 20260505222608 | 85 | 0.0 | 0.0 | 0.00 | 0.00 | 0.00 | 100 | 1008.1 | |
| 20260505222407 | 85 | 0.0 | 0.0 | 0.00 | 0.00 | 0.00 | 100 | 1008.0 | |
| 20260505222206 | 85 | 0.0 | 0.0 | 0.00 | 0.00 | 0.00 | 100 | 1008.0 | |
| 20260505222005 | 85 | 0.0 | 0.0 | 0.00 | 0.00 | 0.00 | 100 | 1008.0 | |
| 20260505221805 | 85 | 0.0 | 0.0 | 0.00 | 0.00 | 0.00 | 100 | 1008.0 | |
| 20260505221604 | 85 | 0.0 | 0.0 | 0.00 | 0.00 | 0.00 | 100 | 1008.0 | |
| 20260505221403 | 84 | 0.0 | 0.0 | 0.00 | 0.00 | 0.00 | 100 | 1007.9 | |
| 20260505221202 | 84 | 0.0 | 0.0 | 0.00 | 0.00 | 0.00 | 100 | 1007.9 | |
| 20260505221001 | 83 | 0.0 | 0.0 | 0.00 | 0.00 | 0.00 | 100 | 1007.8 | |
| 20260505220800 | 82 | 0.0 | 0.0 | 0.00 | 0.00 | 0.00 | 100 | 1007.9 | |
| 20260505220559 | 82 | 0.0 | 0.0 | 0.00 | 0.00 | 0.00 | 100 | 1007.8 | |
| 20260505220358 | 82 | 0.0 | 0.0 | 0.00 | 0.00 | 0.00 | 100 | 1007.8 | |
| 20260505220157 | 82 | 0.0 | 0.0 | 0.00 | 0.00 | 0.00 | 100 | 1008.0 | |
| 20260505215956 | 82 | 0.0 | 0.0 | 0.00 | 0.00 | 0.00 | 100 | 1008.0 | |
| 20260505215755 | 84 | 0.0 | 0.0 | 0.00 | 0.00 | 0.00 | 100 | 1007.9 | |
| 20260505215554 | 84 | 0.0 | 0.0 | 0.00 | 0.00 | 0.00 | 100 | 1008.0 | |
| 20260505215353 | 83 | 0.0 | 0.0 | 0.00 | 0.00 | 0.00 | 100 | 1008.0 | |
| 20260505215152 | 82 | 0.0 | 0.0 | 0.00 | 0.00 | 0.00 | 100 | 1007.9 | |
| 20260505214951 | 83 | 0.0 | 0.0 | 0.00 | 0.00 | 0.00 | 100 | 1008.0 | |
| 20260505214750 | 83 | 0.0 | 0.0 | 0.00 | 0.00 | 0.00 | 100 | 1007.9 | |
| 20260505214549 | 82 | 0.0 | 0.0 | 0.00 | 0.00 | 0.00 | 100 | 1007.9 | |
| 20260505214348 | 82 | 0.0 | 0.0 | 0.00 | 0.00 | 0.00 | 100 | 1007.9 | |
| 20260505214148 | 83 | 0.0 | 0.0 | 0.00 | 0.00 | 0.00 | 100 | 1007.9 | |
| 20260505213947 | 84 | 0.0 | 0.0 | 0.00 | 0.00 | 0.00 | 100 | 1007.9 | |
| 20260505213746 | 83 | 0.0 | 0.0 | 0.00 | 0.00 | 0.00 | 100 | 1008.0 | |
| 20260505213545 | 83 | 0.0 | 0.0 | 0.00 | 0.00 | 0.00 | 100 | 1008.0 | |
| 20260505213344 | 82 | 0.0 | 0.0 | 0.00 | 0.00 | 0.00 | 100 | 1008.1 | |
| 20260505213143 | 81 | 0.0 | 0.0 | 0.00 | 0.00 | 0.00 | 100 | 1008.1 | |
| 20260505212942 | 82 | 0.0 | 0.0 | 0.00 | 0.00 | 0.00 | 100 | 1008.0 | |
| 20260505212741 | 82 | 0.0 | 0.0 | 0.00 | 0.00 | 0.00 | 100 | 1008.0 | |
| 20260505212540 | 82 | 0.0 | 0.0 | 0.00 | 0.00 | 0.00 | 100 | 1008.0 | |
| 20260505212339 | 82 | 0.0 | 0.0 | 0.00 | 0.00 | 0.00 | 100 | 1007.9 | |
| 20260505212138 | 81 | 0.0 | 0.0 | 0.00 | 0.00 | 0.00 | 100 | 1008.0 | |
| 20260505211937 | 81 | 0.0 | 0.0 | 0.00 | 0.00 | 0.00 | 100 | 1007.9 | |
| 20260505211736 | 81 | 0.0 | 0.0 | 0.00 | 0.00 | 0.00 | 100 | 1008.0 | |
| 20260505211535 | 80 | 0.0 | 0.0 | 0.00 | 0.00 | 0.00 | 100 | 1008.0 | |
| 20260505211334 | 81 | 0.0 | 0.0 | 0.00 | 0.00 | 0.00 | 100 | 1008.0 | |
| 20260505211133 | 82 | 0.0 | 0.0 | 0.00 | 0.00 | 0.00 | 100 | 1007.9 | |
| 20260505210932 | 82 | 0.0 | 0.0 | 0.00 | 0.00 | 0.00 | 100 | 1007.9 | |
| 20260505210732 | 82 | 0.0 | 0.0 | 0.00 | 0.00 | 0.00 | 100 | 1007.8 | |
| 20260505210531 | 83 | 0.0 | 0.0 | 0.00 | 0.00 | 0.00 | 100 | 1007.8 | |
| 20260505210330 | 82 | 0.0 | 0.0 | 0.00 | 0.00 | 0.00 | 100 | 1007.8 | |
| 20260505210129 | 83 | 0.0 | 0.0 | 0.00 | 0.00 | 0.00 | 100 | 1007.7 | |
| 20260505205928 | 82 | 0.0 | 0.0 | 0.00 | 0.00 | 0.00 | 100 | 1007.7 | |
| 20260505205727 | 81 | 0.0 | 0.0 | 0.00 | 0.00 | 0.00 | 100 | 1007.7 | |
| 20260505205526 | 81 | 0.0 | 0.0 | 0.00 | 0.00 | 0.00 | 100 | 1007.6 | |
| 20260505205325 | 81 | 0.0 | 0.0 | 0.00 | 0.00 | 0.00 | 100 | 1007.6 | |
| 20260505205124 | 81 | 0.0 | 0.0 | 0.00 | 0.00 | 0.00 | 100 | 1007.5 | |
| 20260505204923 | 82 | 0.0 | 0.0 | 0.00 | 0.00 | 0.00 | 100 | 1007.5 | |
| 20260505204722 | 82 | 0.0 | 0.0 | 0.00 | 0.00 | 0.00 | 100 | 1007.6 | |
| 20260505204521 | 81 | 0.0 | 0.0 | 0.00 | 0.00 | 0.00 | 100 | 1007.5 | |
| 20260505204320 | 82 | 0.0 | 0.0 | 0.00 | 0.00 | 0.00 | 100 | 1007.6 | |
| 20260505204119 | 82 | 0.0 | 0.0 | 0.00 | 0.00 | 0.00 | 100 | 1007.6 | |
| 20260505203918 | 81 | 0.0 | 0.0 | 0.00 | 0.00 | 0.00 | 100 | 1007.5 | |
| 20260505203717 | 81 | 0.0 | 0.0 | 0.00 | 0.00 | 0.00 | 100 | 1007.5 | |
| 20260505203516 | 82 | 0.0 | 0.0 | 0.00 | 0.00 | 0.00 | 100 | 1007.6 | |
| 20260505203316 | 81 | 0.0 | 0.0 | 0.00 | 0.00 | 0.00 | 100 | 1007.5 | |
| 20260505203115 | 82 | 0.0 | 0.0 | 0.00 | 0.00 | 0.00 | 100 | 1007.5 | |
| 20260505202914 | 82 | 0.0 | 0.0 | 0.00 | 0.00 | 0.00 | 100 | 1007.5 | |
| 20260505202713 | 82 | 0.0 | 0.0 | 0.00 | 0.00 | 0.00 | 100 | 1007.5 | |
| 20260505202512 | 82 | 0.0 | 0.0 | 0.00 | 0.00 | 0.00 | 100 | 1007.5 | |
| 20260505202311 | 82 | 0.0 | 0.0 | 0.00 | 0.00 | 0.00 | 100 | 1007.4 | |
| 20260505202110 | 81 | 0.0 | 0.0 | 0.00 | 0.00 | 0.00 | 100 | 1007.4 | |
| 20260505201909 | 80 | 0.0 | 0.0 | 0.00 | 0.00 | 0.00 | 100 | 1007.4 | |
| 20260505201708 | 81 | 0.0 | 0.0 | 0.00 | 0.00 | 0.00 | 100 | 1007.3 | |
| 20260505201507 | 82 | 0.0 | 0.0 | 0.00 | 0.00 | 0.00 | 100 | 1007.3 | |
| 20260505201306 | 82 | 0.0 | 0.0 | 0.00 | 0.00 | 0.00 | 100 | 1007.3 | |
| 20260505201105 | 82 | 0.0 | 0.0 | 0.00 | 0.00 | 0.00 | 100 | 1007.3 | |
| 20260505200904 | 82 | 0.0 | 0.0 | 0.00 | 0.00 | 0.00 | 100 | 1007.3 | |
| 20260505200703 | 82 | 0.0 | 0.0 | 0.00 | 0.00 | 0.00 | 100 | 1007.2 | |
| 20260505200502 | 82 | 0.0 | 0.0 | 0.00 | 0.00 | 0.00 | 100 | 1007.1 | |
| 20260505200301 | 82 | 0.0 | 0.0 | 0.00 | 0.00 | 0.00 | 100 | 1007.1 | |
| 20260505200101 | 82 | 0.0 | 0.0 | 0.00 | 0.00 | 0.00 | 100 | 1007.2 | |
| 20260505195900 | 81 | 0.0 | 0.0 | 0.00 | 0.00 | 0.00 | 100 | 1007.1 | |
| 20260505195659 | 81 | 0.0 | 0.0 | 0.00 | 0.00 | 0.00 | 100 | 1007.0 | |
| 20260505195458 | 81 | 0.0 | 0.0 | 0.00 | 0.00 | 0.00 | 100 | 1007.0 | |
| 20260505195257 | 81 | 0.0 | 0.0 | 0.00 | 0.00 | 0.00 | 100 | 1006.8 | |
| 20260505195056 | 82 | 0.0 | 0.0 | 0.00 | 0.00 | 0.00 | 100 | 1006.8 | |
| 20260505194855 | 82 | 0.0 | 0.0 | 0.00 | 0.00 | 0.00 | 100 | 1006.8 | |
| 20260505194654 | 82 | 0.0 | 0.0 | 0.00 | 0.00 | 0.00 | 100 | 1006.7 | |
| 20260505194453 | 82 | 0.0 | 0.0 | 0.00 | 0.00 | 0.00 | 100 | 1006.7 | |
| 20260505194252 | 82 | 0.0 | 0.0 | 0.00 | 0.00 | 0.00 | 100 | 1006.6 | |
| 20260505194051 | 83 | 0.0 | 0.0 | 0.00 | 0.00 | 0.00 | 100 | 1006.6 | |
| 20260505193850 | 82 | 0.0 | 0.0 | 0.00 | 0.00 | 0.00 | 100 | 1006.5 | |
| 20260505193649 | 82 | 0.0 | 0.0 | 0.00 | 0.00 | 0.00 | 100 | 1006.5 | |
| 20260505193448 | 82 | 0.0 | 0.0 | 0.00 | 0.00 | 0.00 | 100 | 1006.5 | |
| 20260505193247 | 82 | 0.0 | 0.0 | 0.00 | 0.00 | 0.00 | 100 | 1006.4 | |
| 20260505193046 | 82 | 0.0 | 0.0 | 0.00 | 0.00 | 0.00 | 100 | 1006.4 | |
| 20260505192846 | 82 | 0.0 | 0.0 | 0.00 | 0.00 | 0.00 | 100 | 1006.4 | |
| 20260505192645 | 82 | 0.0 | 0.0 | 0.00 | 0.00 | 0.00 | 100 | 1006.3 | |
| 20260505192444 | 82 | 0.0 | 0.0 | 0.00 | 0.00 | 0.00 | 100 | 1006.4 | |
| 20260505192243 | 82 | 0.0 | 0.0 | 0.00 | 0.00 | 0.00 | 100 | 1006.3 | |
| 20260505192042 | 82 | 0.0 | 0.0 | 0.00 | 0.00 | 0.00 | 100 | 1006.4 | |
| 20260505191841 | 82 | 0.0 | 0.0 | 0.00 | 0.00 | 0.00 | 100 | 1006.4 | |
| 20260505191640 | 81 | 0.0 | 0.0 | 0.00 | 0.00 | 0.00 | 100 | 1006.3 | |
| 20260505191439 | 82 | 0.0 | 0.0 | 0.00 | 0.00 | 0.00 | 100 | 1006.2 | |
| 20260505191238 | 82 | 0.0 | 0.0 | 0.00 | 0.00 | 0.00 | 100 | 1006.2 | |
| 20260505191037 | 83 | 0.0 | 0.0 | 0.00 | 0.00 | 0.00 | 100 | 1006.3 | |
| 20260505190836 | 83 | 0.0 | 0.0 | 0.00 | 0.00 | 0.00 | 100 | 1006.3 | |
| 20260505190635 | 83 | 0.0 | 0.0 | 0.00 | 0.00 | 0.00 | 100 | 1006.3 | |
| 20260505190434 | 83 | 0.0 | 0.0 | 0.00 | 0.00 | 0.00 | 100 | 1006.2 | |
| 20260505190233 | 83 | 0.0 | 0.0 | 0.00 | 0.00 | 0.00 | 100 | 1006.3 | |
| 20260505190032 | 83 | 0.0 | 0.0 | 0.00 | 0.00 | 0.00 | 100 | 1006.2 | |
| 20260505185831 | 83 | 0.0 | 0.0 | 0.00 | 0.00 | 0.00 | 100 | 1006.3 | |
| 20260505185630 | 82 | 0.0 | 0.0 | 0.00 | 0.00 | 0.00 | 100 | 1006.3 | |
| 20260505185430 | 81 | 0.0 | 0.0 | 0.00 | 0.00 | 0.00 | 100 | 1006.2 | |
| 20260505185229 | 81 | 0.0 | 0.0 | 0.00 | 0.00 | 0.00 | 100 | 1006.3 | |
| 20260505185028 | 81 | 0.0 | 0.0 | 0.00 | 0.00 | 0.00 | 100 | 1006.3 | |
| 20260505184827 | 81 | 0.0 | 0.0 | 0.00 | 0.00 | 0.00 | 100 | 1006.3 | |
| 20260505184626 | 82 | 0.0 | 0.0 | 0.00 | 0.00 | 0.00 | 100 | 1006.3 | |
| 20260505184425 | 81 | 0.0 | 0.0 | 0.00 | 0.00 | 0.00 | 100 | 1006.3 | |
| 20260505184224 | 82 | 0.0 | 0.0 | 0.00 | 0.00 | 0.00 | 100 | 1006.3 | |
| 20260505184023 | 83 | 0.0 | 0.0 | 0.00 | 0.00 | 0.00 | 100 | 1006.4 | |
| 20260505183822 | 83 | 0.0 | 0.0 | 0.00 | 0.00 | 0.00 | 100 | 1006.4 | |
| 20260505183621 | 82 | 0.0 | 0.0 | 0.00 | 0.00 | 0.00 | 100 | 1006.3 | |
| 20260505183420 | 81 | 0.0 | 0.0 | 0.00 | 0.00 | 0.00 | 100 | 1006.3 | |
| 20260505183219 | 82 | 0.0 | 0.0 | 0.00 | 0.00 | 0.00 | 100 | 1006.3 | |
| 20260505183018 | 82 | 0.0 | 0.0 | 0.00 | 0.00 | 0.00 | 100 | 1006.2 | |
| 20260505182817 | 82 | 0.0 | 0.0 | 0.00 | 0.00 | 0.00 | 100 | 1006.2 | |
| 20260505182616 | 82 | 0.0 | 0.0 | 0.00 | 0.00 | 0.00 | 100 | 1006.3 | |
| 20260505182416 | 81 | 0.0 | 0.0 | 0.00 | 0.00 | 0.00 | 100 | 1006.2 | |
| 20260505182214 | 82 | 0.0 | 0.0 | 0.00 | 0.00 | 0.00 | 100 | 1006.1 | |
| 20260505182013 | 82 | 0.0 | 0.0 | 0.00 | 0.00 | 0.00 | 100 | 1006.1 | |
| 20260505181813 | 82 | 0.0 | 0.0 | 0.00 | 0.00 | 0.00 | 100 | 1006.0 | |
| 20260505181612 | 82 | 0.0 | 0.0 | 0.00 | 0.00 | 0.00 | 100 | 1006.1 | |
| 20260505181411 | 83 | 0.0 | 0.0 | 0.00 | 0.00 | 0.00 | 100 | 1006.2 | |
| 20260505181210 | 83 | 0.0 | 0.0 | 0.00 | 0.00 | 0.00 | 100 | 1006.2 | |
| 20260505181009 | 83 | 0.0 | 0.0 | 0.00 | 0.00 | 0.00 | 100 | 1006.2 | |
| 20260505180808 | 82 | 0.0 | 0.0 | 0.00 | 0.00 | 0.00 | 100 | 1006.3 | |
| 20260505180607 | 83 | 0.0 | 0.0 | 0.00 | 0.00 | 0.00 | 100 | 1006.2 | |
| 20260505180406 | 83 | 0.0 | 0.0 | 0.00 | 0.00 | 0.00 | 100 | 1006.1 | |
| 20260505180205 | 83 | 0.0 | 0.0 | 0.00 | 0.00 | 0.00 | 100 | 1006.1 | |
| 20260505175803 | 83 | 0.0 | 0.0 | 0.00 | 0.00 | 0.00 | 100 | 1006.2 | |
| 20260505175602 | 84 | 0.0 | 0.0 | 0.00 | 0.00 | 0.00 | 100 | 1006.2 | |
| 20260505175401 | 83 | 0.0 | 0.0 | 0.00 | 0.00 | 0.00 | 100 | 1006.2 | |
| 20260505175200 | 83 | 0.0 | 0.0 | 0.00 | 0.00 | 0.00 | 100 | 1006.2 | |
| 20260505174959 | 83 | 0.0 | 0.0 | 0.00 | 0.00 | 0.00 | 100 | 1006.3 | |
| 20260505174758 | 82 | 0.0 | 0.0 | 0.00 | 0.00 | 0.00 | 100 | 1006.3 | |
| 20260505174557 | 83 | 0.0 | 0.0 | 0.00 | 0.00 | 0.00 | 100 | 1006.3 | |
| 20260505174356 | 83 | 0.0 | 0.0 | 0.00 | 0.00 | 0.00 | 100 | 1006.3 | |
| 20260505174156 | 83 | 0.0 | 0.0 | 0.00 | 0.00 | 0.00 | 100 | 1006.3 | |
| 20260505173955 | 83 | 0.0 | 0.0 | 0.00 | 0.00 | 0.00 | 100 | 1006.4 | |
| 20260505173754 | 83 | 0.0 | 0.0 | 0.00 | 0.00 | 0.00 | 100 | 1006.3 | |
| 20260505173553 | 83 | 0.0 | 0.0 | 0.00 | 0.00 | 0.00 | 100 | 1006.4 | |
| 20260505173352 | 83 | 0.0 | 0.0 | 0.00 | 0.00 | 0.00 | 100 | 1006.4 | |
| 20260505173151 | 82 | 0.0 | 0.0 | 0.00 | 0.00 | 0.00 | 100 | 1006.4 | |
| 20260505172950 | 82 | 0.0 | 0.0 | 0.00 | 0.00 | 0.00 | 100 | 1006.4 | |
| 20260505172749 | 82 | 0.0 | 0.0 | 0.00 | 0.00 | 0.00 | 100 | 1006.5 | |
| 20260505172548 | 83 | 0.0 | 0.0 | 0.00 | 0.00 | 0.00 | 100 | 1006.4 | |
| 20260505172347 | 83 | 0.0 | 0.0 | 0.00 | 0.00 | 0.00 | 100 | 1006.4 | |
| 20260505172146 | 83 | 0.0 | 0.0 | 0.00 | 0.00 | 0.00 | 100 | 1006.4 | |
| 20260505171945 | 83 | 0.0 | 0.0 | 0.00 | 0.00 | 0.00 | 100 | 1006.4 | |
| 20260505171744 | 83 | 0.0 | 0.0 | 0.00 | 0.00 | 0.00 | 100 | 1006.4 | |
| 20260505171543 | 83 | 0.0 | 0.0 | 0.00 | 0.00 | 0.00 | 100 | 1006.4 | |
| 20260505171342 | 83 | 0.0 | 0.0 | 0.00 | 0.00 | 0.00 | 100 | 1006.3 | |
| 20260505171141 | 82 | 0.0 | 0.0 | 0.00 | 0.00 | 0.00 | 100 | 1006.3 | |
| 20260505170940 | 82 | 0.0 | 0.0 | 0.00 | 0.00 | 0.00 | 100 | 1006.3 | |
| 20260505170740 | 82 | 0.0 | 0.0 | 0.00 | 0.00 | 0.00 | 100 | 1006.2 | |
| 20260505170539 | 83 | 0.0 | 0.0 | 0.00 | 0.00 | 0.00 | 100 | 1006.2 | |
| 20260505170338 | 83 | 0.0 | 0.0 | 0.00 | 0.00 | 0.00 | 100 | 1006.1 | |
| 20260505170137 | 83 | 0.0 | 0.0 | 0.00 | 0.00 | 0.00 | 100 | 1006.2 | |
| 20260505165936 | 82 | 0.0 | 0.0 | 0.00 | 0.00 | 0.00 | 100 | 1006.1 | |
| 20260505165735 | 82 | 0.0 | 0.0 | 0.00 | 0.00 | 0.00 | 100 | 1006.1 | |
| 20260505165534 | 81 | 0.0 | 0.0 | 0.00 | 0.00 | 0.00 | 100 | 1006.2 | |
| 20260505165333 | 81 | 0.0 | 0.0 | 0.00 | 0.00 | 0.00 | 100 | 1006.2 | |
| 20260505165132 | 82 | 0.0 | 0.0 | 0.00 | 0.00 | 0.00 | 100 | 1006.3 | |
| 20260505164931 | 83 | 0.0 | 0.0 | 0.00 | 0.00 | 0.00 | 100 | 1006.2 | |
| 20260505164730 | 83 | 0.0 | 0.0 | 0.00 | 0.00 | 0.00 | 100 | 1006.2 | |
| 20260505164529 | 83 | 0.0 | 0.0 | 0.00 | 0.00 | 0.00 | 100 | 1006.2 | |
| 20260505164328 | 83 | 0.0 | 0.0 | 0.00 | 0.00 | 0.00 | 100 | 1006.3 | |
| 20260505164127 | 83 | 0.0 | 0.0 | 0.00 | 0.00 | 0.00 | 100 | 1006.3 | |
| 20260505163926 | 83 | 0.0 | 0.0 | 0.00 | 0.00 | 0.00 | 100 | 1006.4 | |
| 20260505163725 | 83 | 0.0 | 0.0 | 0.00 | 0.00 | 0.00 | 100 | 1006.4 | |
| 20260505163524 | 83 | 0.0 | 0.0 | 0.00 | 0.00 | 0.00 | 100 | 1006.4 | |
| 20260505163324 | 83 | 0.0 | 0.0 | 0.00 | 0.00 | 0.00 | 100 | 1006.5 | |
| 20260505163123 | 83 | 0.0 | 0.0 | 0.00 | 0.00 | 0.00 | 100 | 1006.5 | |
| 20260505162922 | 82 | 0.0 | 0.0 | 0.00 | 0.00 | 0.00 | 100 | 1006.4 | |
| 20260505162721 | 82 | 0.0 | 0.0 | 0.00 | 0.00 | 0.00 | 100 | 1006.5 | |
| 20260505162520 | 82 | 0.0 | 0.0 | 0.00 | 0.00 | 0.00 | 100 | 1006.5 | |
| 20260505162319 | 83 | 0.0 | 0.0 | 0.00 | 0.00 | 0.00 | 100 | 1006.5 | |
| 20260505162118 | 83 | 0.0 | 0.0 | 0.00 | 0.00 | 0.00 | 100 | 1006.4 | |
| 20260505161917 | 83 | 0.0 | 0.0 | 0.00 | 0.00 | 0.00 | 100 | 1006.4 | |
| 20260505161716 | 83 | 0.0 | 0.0 | 0.00 | 0.00 | 0.00 | 100 | 1006.5 | |
| 20260505161515 | 82 | 0.0 | 0.0 | 0.00 | 0.00 | 0.00 | 100 | 1006.6 | |
| 20260505161314 | 82 | 0.0 | 0.0 | 0.00 | 0.00 | 0.00 | 100 | 1006.6 | |
| 20260505161113 | 83 | 0.0 | 0.0 | 0.00 | 0.00 | 0.00 | 100 | 1006.6 | |
| 20260505160912 | 83 | 0.0 | 0.0 | 0.00 | 0.00 | 0.00 | 100 | 1006.7 | |
| 20260505160711 | 83 | 0.0 | 0.0 | 0.00 | 0.00 | 0.00 | 100 | 1006.6 | |
| 20260505160510 | 83 | 0.0 | 0.0 | 0.00 | 0.00 | 0.00 | 100 | 1006.7 | |
| 20260505160309 | 83 | 0.0 | 0.0 | 0.00 | 0.00 | 0.00 | 100 | 1006.7 | |
| 20260505160108 | 83 | 0.0 | 0.0 | 0.00 | 0.00 | 0.00 | 100 | 1006.8 | |
| 20260505153255 | 83 | 0.0 | 0.0 | 0.00 | 0.00 | 0.00 | 100 | 1007.1 | |
| 20260505153054 | 83 | 0.0 | 0.0 | 0.00 | 0.00 | 0.00 | 100 | 1007.1 | |
| 20260505152853 | 83 | 0.0 | 0.0 | 0.00 | 0.00 | 0.00 | 100 | 1007.1 | |
| 20260505152653 | 82 | 0.0 | 0.0 | 0.00 | 0.00 | 0.00 | 100 | 1007.1 | |
| 20260505152452 | 83 | 0.0 | 0.0 | 0.00 | 0.00 | 0.00 | 100 | 1007.2 | |
| 20260505152251 | 83 | 0.0 | 0.0 | 0.00 | 0.00 | 0.00 | 100 | 1007.2 | |
| 20260505152050 | 83 | 0.0 | 0.0 | 0.00 | 0.00 | 0.00 | 100 | 1007.2 | |
| 20260505151849 | 83 | 0.0 | 0.0 | 0.00 | 0.00 | 0.00 | 100 | 1007.2 | |
| 20260505151648 | 83 | 0.0 | 0.0 | 0.00 | 0.00 | 0.00 | 100 | 1007.3 | |
| 20260505151449 | 83 | 0.0 | 0.0 | 0.00 | 0.00 | 0.00 | 100 | 1007.3 | |
| 20260505151246 | 83 | 0.0 | 0.0 | 0.00 | 0.00 | 0.00 | 100 | 1007.3 | |
| 20260505151045 | 83 | 0.0 | 0.0 | 0.00 | 0.00 | 0.00 | 100 | 1007.3 | |
| 20260505150844 | 84 | 0.0 | 0.0 | 0.00 | 0.00 | 0.00 | 100 | 1007.3 | |
| 20260505150643 | 84 | 0.0 | 0.0 | 0.00 | 0.00 | 0.00 | 100 | 1007.5 | |
| 20260505150442 | 84 | 0.0 | 0.0 | 0.00 | 0.00 | 0.00 | 100 | 1007.4 | |
| 20260505150241 | 83 | 0.0 | 0.0 | 0.00 | 0.00 | 0.00 | 100 | 1007.4 | |
| 20260505140615 | 83 | 0.0 | 0.0 | 0.00 | 0.00 | 0.00 | 100 | 1007.6 | |
| 20260505140414 | 82 | 0.0 | 0.0 | 0.00 | 0.00 | 0.00 | 100 | 1007.6 | |
| 20260505140213 | 83 | 0.0 | 0.0 | 0.00 | 0.00 | 0.00 | 100 | 1007.6 | |
| 20260505130145 | 84 | 0.0 | 0.0 | 0.00 | 0.00 | 0.00 | 100 | 1007.7 | |
| 20260505124939 | 84 | 0.0 | 0.0 | 0.00 | 0.00 | 0.00 | 100 | 1007.7 | |
| 20260505124738 | 84 | 0.0 | 0.0 | 0.00 | 0.00 | 0.00 | 100 | 1007.7 | |
| 20260505124537 | 85 | 0.0 | 0.0 | 0.00 | 0.00 | 0.00 | 100 | 1007.7 | |
| 20260505124336 | 84 | 0.0 | 0.0 | 0.00 | 0.00 | 0.00 | 100 | 1007.6 | |
| 20260505124135 | 84 | 0.0 | 0.0 | 0.00 | 0.00 | 0.00 | 100 | 1007.6 | |
| 20260505123934 | 84 | 0.0 | 0.0 | 0.00 | 0.00 | 0.00 | 100 | 1007.6 | |
| 20260505123733 | 84 | 0.0 | 0.0 | 0.00 | 0.00 | 0.00 | 100 | 1007.6 | |
| 20260505123532 | 84 | 0.0 | 0.0 | 0.00 | 0.00 | 0.00 | 100 | 1007.6 | |
| 20260505123332 | 84 | 0.0 | 0.0 | 0.00 | 0.00 | 0.00 | 100 | 1007.6 | |
| 20260505123131 | 84 | 0.0 | 0.0 | 0.00 | 0.00 | 0.00 | 100 | 1007.6 | |
| 20260505122930 | 84 | 0.0 | 0.0 | 0.00 | 0.00 | 0.00 | 100 | 1007.6 | |
| 20260505122729 | 85 | 0.0 | 0.0 | 0.00 | 0.00 | 0.00 | 100 | 1007.6 | |
| 20260505122528 | 85 | 0.0 | 0.0 | 0.00 | 0.00 | 0.00 | 100 | 1007.7 | |
| 20260505122327 | 85 | 0.0 | 0.0 | 0.00 | 0.00 | 0.00 | 100 | 1007.7 | |
| 20260505122126 | 84 | 0.0 | 0.0 | 0.00 | 0.00 | 0.00 | 100 | 1007.6 | |
| 20260505121925 | 84 | 0.0 | 0.0 | 0.00 | 0.00 | 0.00 | 100 | 1007.6 | |
| 20260505121724 | 84 | 0.0 | 0.0 | 0.00 | 0.00 | 0.00 | 100 | 1007.7 | |
| 20260505121523 | 83 | 0.0 | 0.0 | 0.00 | 0.00 | 0.00 | 100 | 1007.6 | |
| 20260505121324 | 83 | 0.0 | 0.0 | 0.00 | 0.00 | 0.00 | 100 | 1007.7 | |
| 20260505121121 | 84 | 0.0 | 0.0 | 0.00 | 0.00 | 0.00 | 100 | 1007.7 | |
| 20260505120920 | 84 | 0.0 | 0.0 | 0.00 | 0.00 | 0.00 | 100 | 1007.7 | |
| 20260505120719 | 84 | 0.0 | 0.0 | 0.00 | 0.00 | 0.00 | 100 | 1007.7 | |
| 20260505120518 | 84 | 0.0 | 0.0 | 0.00 | 0.00 | 0.00 | 100 | 1007.7 | |
| 20260505120317 | 84 | 0.0 | 0.0 | 0.00 | 0.00 | 0.00 | 100 | 1007.7 | |
| 20260505120117 | 84 | 0.0 | 0.0 | 0.00 | 0.00 | 0.00 | 100 | 1007.7 | |
| 20260505115916 | 86 | 0.0 | 0.0 | 0.00 | 0.00 | 0.00 | 100 | 1007.7 | |
| 20260505115715 | 85 | 0.0 | 0.0 | 0.00 | 0.00 | 0.00 | 100 | 1007.7 | |
| 20260505115514 | 85 | 0.0 | 0.0 | 0.00 | 0.00 | 0.00 | 100 | 1007.6 | |
| 20260505115313 | 85 | 0.0 | 0.0 | 0.00 | 0.00 | 0.00 | 100 | 1007.7 | |
| 20260505115112 | 85 | 0.0 | 0.0 | 0.00 | 0.00 | 0.00 | 100 | 1007.8 | |
| 20260505114911 | 85 | 0.0 | 0.0 | 0.00 | 0.00 | 0.00 | 100 | 1007.7 | |
| 20260505114710 | 85 | 0.0 | 0.0 | 0.00 | 0.00 | 0.00 | 100 | 1007.7 | |
| 20260505114509 | 85 | 0.0 | 0.0 | 0.00 | 0.00 | 0.00 | 100 | 1007.7 | |
| 20260505114308 | 86 | 0.0 | 0.0 | 0.00 | 0.00 | 0.00 | 100 | 1007.6 | |
| 20260505114107 | 86 | 0.0 | 0.0 | 0.00 | 0.00 | 0.00 | 100 | 1007.7 | |
| 20260505113906 | 85 | 0.0 | 0.0 | 0.00 | 0.00 | 0.00 | 100 | 1007.7 | |
| 20260505113705 | 86 | 0.0 | 0.0 | 0.00 | 0.00 | 0.00 | 100 | 1007.7 | |
| 20260505113504 | 85 | 0.0 | 0.0 | 0.00 | 0.00 | 0.00 | 100 | 1007.7 | |
| 20260505113303 | 86 | 0.0 | 0.0 | 0.00 | 0.00 | 0.00 | 100 | 1007.6 | |
| 20260505113102 | 86 | 0.0 | 0.0 | 0.00 | 0.00 | 0.00 | 100 | 1007.7 | |
| 20260505112901 | 86 | 0.0 | 0.0 | 0.00 | 0.00 | 0.00 | 100 | 1007.7 | |
| 20260505112700 | 85 | 0.0 | 0.0 | 0.00 | 0.00 | 0.00 | 100 | 1007.6 | |
| 20260505112500 | 85 | 0.0 | 0.0 | 0.00 | 0.00 | 0.00 | 100 | 1007.7 | |
| 20260505112259 | 86 | 0.0 | 0.0 | 0.00 | 0.00 | 0.00 | 100 | 1007.5 | |
| 20260505112058 | 86 | 0.0 | 0.0 | 0.00 | 0.00 | 0.00 | 100 | 1007.6 | |
| 20260505111857 | 86 | 0.0 | 0.0 | 0.00 | 0.00 | 0.00 | 100 | 1007.5 | |
| 20260505111656 | 85 | 0.0 | 0.0 | 0.00 | 0.00 | 0.00 | 100 | 1007.6 | |
| 20260505111455 | 85 | 0.0 | 0.0 | 0.00 | 0.00 | 0.00 | 100 | 1007.5 | |
| 20260505111254 | 85 | 0.0 | 0.0 | 0.00 | 0.00 | 0.00 | 100 | 1007.6 | |
| 20260505111053 | 85 | 0.0 | 0.0 | 0.00 | 0.00 | 0.00 | 100 | 1007.6 | |
| 20260505110852 | 85 | 0.0 | 0.0 | 0.00 | 0.00 | 0.00 | 100 | 1007.5 | |
| 20260505110651 | 85 | 0.0 | 0.0 | 0.00 | 0.00 | 0.00 | 100 | 1007.5 | |
| 20260505110450 | 85 | 0.0 | 0.0 | 0.00 | 0.00 | 0.00 | 100 | 1007.5 | |
| 20260505110249 | 85 | 0.0 | 0.0 | 0.00 | 0.00 | 0.00 | 100 | 1007.5 | |
| 20260505102029 | 86 | 0.0 | 0.0 | 0.00 | 0.00 | 0.00 | 100 | 1006.6 | |
| 20260505101828 | 86 | 0.0 | 0.0 | 0.00 | 0.00 | 0.00 | 100 | 1006.6 | |
| 20260505101628 | 86 | 0.0 | 0.0 | 0.00 | 0.00 | 0.00 | 100 | 1006.6 | |
| 20260505101427 | 85 | 0.0 | 0.0 | 0.00 | 0.00 | 0.00 | 100 | 1006.6 | |
| 20260505101226 | 85 | 0.0 | 0.0 | 0.00 | 0.00 | 0.00 | 100 | 1006.5 | |
| 20260505101025 | 85 | 0.0 | 0.0 | 0.00 | 0.00 | 0.00 | 100 | 1006.5 | |
| 20260505100824 | 85 | 0.0 | 0.0 | 0.00 | 0.00 | 0.00 | 100 | 1006.4 | |
| 20260505100623 | 86 | 0.0 | 0.0 | 0.00 | 0.00 | 0.00 | 100 | 1006.4 | |
| 20260505100422 | 85 | 0.0 | 0.0 | 0.00 | 0.00 | 0.00 | 100 | 1006.4 | |
| 20260505100221 | 85 | 0.0 | 0.0 | 0.00 | 0.00 | 0.00 | 100 | 1006.3 | |
| 20260505100020 | 85 | 0.0 | 0.0 | 0.00 | 0.00 | 0.00 | 100 | 1006.3 | |
| 20260505095819 | 85 | 0.0 | 0.0 | 0.00 | 0.00 | 0.00 | 100 | 1006.2 | |
| 20260505095618 | 86 | 0.0 | 0.0 | 0.00 | 0.00 | 0.00 | 100 | 1006.1 | |
| 20260505095417 | 87 | 0.0 | 0.0 | 0.00 | 0.00 | 0.00 | 99 | 1006.1 | |
| 20260505095216 | 87 | 0.0 | 0.0 | 0.00 | 0.00 | 0.00 | 98 | 1006.0 | |
| 20260505095015 | 88 | 0.0 | 0.0 | 0.00 | 0.00 | 0.00 | 97 | 1006.0 | |
| 20260505094814 | 87 | 0.0 | 0.0 | 0.00 | 0.00 | 0.00 | 98 | 1006.0 | |
| 20260505094613 | 87 | 0.0 | 0.0 | 0.00 | 0.00 | 0.00 | 97 | 1006.0 | |
| 20260505094412 | 87 | 0.0 | 0.0 | 0.00 | 0.00 | 0.00 | 99 | 1005.9 | |
| 20260505094212 | 87 | 0.0 | 0.0 | 0.00 | 0.00 | 0.00 | 99 | 1006.0 | |
| 20260505094011 | 87 | 0.0 | 0.0 | 0.00 | 0.00 | 0.00 | 99 | 1005.9 | |
| 20260505093810 | 87 | 0.0 | 0.0 | 0.00 | 0.00 | 0.00 | 97 | 1005.8 | |
| 20260505093609 | 87 | 0.0 | 0.0 | 0.00 | 0.00 | 0.00 | 97 | 1005.8 | |
| 20260505093408 | 87 | 0.0 | 0.0 | 0.00 | 0.00 | 0.00 | 97 | 1005.8 | |
| 20260505093207 | 87 | 0.0 | 0.0 | 0.00 | 0.00 | 0.00 | 97 | 1005.8 | |
| 20260505093006 | 87 | 0.0 | 0.0 | 0.00 | 0.00 | 0.00 | 96 | 1005.8 | |
| 20260505092805 | 87 | 0.0 | 0.0 | 0.00 | 0.00 | 0.00 | 96 | 1005.7 | |
| 20260505092604 | 88 | 0.0 | 0.0 | 0.00 | 0.00 | 0.00 | 96 | 1005.8 | |
| 20260505092403 | 87 | 0.0 | 0.0 | 0.00 | 0.00 | 0.00 | 97 | 1005.7 | |
| 20260505092203 | 88 | 0.0 | 0.0 | 0.00 | 0.00 | 0.00 | 95 | 1005.8 | |
| 20260505092001 | 88 | 0.0 | 0.0 | 0.00 | 0.00 | 0.00 | 95 | 1005.7 | |
| 20260505091800 | 87 | 0.0 | 0.0 | 0.00 | 0.00 | 0.00 | 96 | 1005.7 | |
| 20260505091559 | 88 | 0.0 | 0.0 | 0.00 | 0.00 | 0.00 | 96 | 1005.7 | |
| 20260505091358 | 87 | 0.0 | 0.0 | 0.00 | 0.00 | 0.00 | 97 | 1005.6 | |
| 20260505091157 | 87 | 0.0 | 0.0 | 0.00 | 0.00 | 0.00 | 98 | 1005.6 | |
| 20260505090956 | 87 | 0.0 | 0.0 | 0.00 | 0.00 | 0.00 | 98 | 1005.6 | |
| 20260505090756 | 87 | 0.0 | 0.0 | 0.00 | 0.00 | 0.00 | 99 | 1005.6 | |
| 20260505090555 | 87 | 0.0 | 0.0 | 0.00 | 0.00 | 0.00 | 97 | 1005.6 | |
| 20260505090354 | 88 | 0.0 | 0.0 | 0.00 | 0.00 | 0.00 | 97 | 1005.5 | |
| 20260505090153 | 87 | 0.0 | 0.0 | 0.00 | 0.00 | 0.00 | 97 | 1005.5 | |
| 20260505085952 | 88 | 0.0 | 0.0 | 0.00 | 0.00 | 0.00 | 98 | 1005.5 | |
| 20260505085751 | 87 | 0.0 | 0.0 | 0.00 | 0.00 | 0.00 | 98 | 1005.4 | |
| 20260505085550 | 87 | 0.0 | 0.0 | 0.00 | 0.00 | 0.00 | 99 | 1005.5 | |
| 20260505085349 | 87 | 0.0 | 0.0 | 0.00 | 0.00 | 0.00 | 98 | 1005.5 | |
| 20260505085148 | 88 | 0.0 | 0.0 | 0.00 | 0.00 | 0.00 | 98 | 1005.4 | |
| 20260505084947 | 88 | 0.0 | 0.0 | 0.00 | 0.00 | 0.00 | 96 | 1005.3 | |
| 20260505084746 | 88 | 0.0 | 0.0 | 0.00 | 0.00 | 0.00 | 96 | 1005.4 | |
| 20260505084545 | 88 | 0.0 | 0.0 | 0.00 | 0.00 | 0.00 | 96 | 1005.3 | |
| 20260505084344 | 88 | 0.0 | 0.0 | 0.00 | 0.00 | 0.00 | 98 | 1005.3 | |
| 20260505084143 | 88 | 0.0 | 0.0 | 0.00 | 0.00 | 0.00 | 97 | 1005.3 | |
| 20260505083942 | 88 | 0.0 | 0.0 | 0.00 | 0.00 | 0.00 | 96 | 1005.2 | |
| 20260505083741 | 88 | 0.0 | 0.0 | 0.00 | 0.00 | 0.00 | 96 | 1005.2 | |
| 20260505083540 | 89 | 0.0 | 0.0 | 0.00 | 0.00 | 0.00 | 96 | 1005.1 | |
| 20260505083340 | 89 | 0.0 | 0.0 | 0.00 | 0.00 | 0.00 | 95 | 1005.1 | |
| 20260505083139 | 88 | 0.0 | 0.0 | 0.00 | 0.00 | 0.00 | 95 | 1005.1 | |
| 20260505082938 | 88 | 0.0 | 0.0 | 0.00 | 0.00 | 0.00 | 95 | 1005.0 | |
| 20260505082737 | 89 | 0.0 | 0.0 | 0.00 | 0.00 | 0.00 | 95 | 1004.9 | |
| 20260505082536 | 89 | 0.0 | 0.0 | 0.00 | 0.00 | 0.00 | 95 | 1004.9 | |
| 20260505082335 | 89 | 0.0 | 0.0 | 0.00 | 0.00 | 0.00 | 96 | 1004.9 | |
| 20260505082134 | 89 | 0.0 | 0.0 | 0.00 | 0.00 | 0.00 | 95 | 1004.9 | |
| 20260505081933 | 89 | 0.0 | 0.0 | 0.00 | 0.00 | 0.00 | 93 | 1004.9 | |
| 20260505081732 | 88 | 0.0 | 0.0 | 0.00 | 0.00 | 0.00 | 95 | 1004.8 | |
| 20260505081531 | 88 | 0.0 | 0.0 | 0.00 | 0.00 | 0.00 | 95 | 1004.8 | |
| 20260505081330 | 88 | 0.0 | 0.0 | 0.00 | 0.00 | 0.00 | 96 | 1004.8 | |
| 20260505081129 | 89 | 0.0 | 0.0 | 0.00 | 0.00 | 0.00 | 94 | 1004.8 | |
| 20260505080928 | 89 | 0.0 | 0.0 | 0.00 | 0.00 | 0.00 | 94 | 1004.8 | |
| 20260505080727 | 89 | 0.0 | 0.0 | 0.00 | 0.00 | 0.00 | 93 | 1004.8 | |
| 20260505080526 | 90 | 0.0 | 0.0 | 0.00 | 0.00 | 0.00 | 92 | 1004.8 | |
| 20260505080325 | 89 | 0.0 | 0.0 | 0.00 | 0.00 | 0.00 | 93 | 1004.7 | |
| 20260505080124 | 90 | 0.0 | 0.0 | 0.00 | 0.00 | 0.00 | 90 | 1004.7 | |
| 20260505075924 | 89 | 0.0 | 0.0 | 0.00 | 0.00 | 0.00 | 92 | 1004.6 | |
| 20260505075723 | 89 | 0.0 | 0.0 | 0.00 | 0.00 | 0.00 | 91 | 1004.6 | |
| 20260505075522 | 89 | 0.0 | 0.0 | 0.00 | 0.00 | 0.00 | 92 | 1004.6 | |
| 20260505075321 | 88 | 0.0 | 0.0 | 0.00 | 0.00 | 0.00 | 92 | 1004.6 | |
| 20260505075120 | 90 | 0.0 | 0.0 | 0.00 | 0.00 | 0.00 | 90 | 1004.6 | |
| 20260505074919 | 88 | 0.0 | 0.0 | 0.00 | 0.00 | 0.00 | 92 | 1004.6 | |
| 20260505074718 | 89 | 0.0 | 0.0 | 0.00 | 0.00 | 0.00 | 92 | 1004.6 | |
| 20260505074517 | 89 | 0.0 | 0.0 | 0.00 | 0.00 | 0.00 | 90 | 1004.6 | |
| 20260505074316 | 90 | 0.0 | 0.0 | 0.00 | 0.00 | 0.00 | 89 | 1004.6 | |
| 20260505074115 | 89 | 0.0 | 0.0 | 0.00 | 0.00 | 0.00 | 91 | 1004.5 | |
| 20260505073914 | 89 | 0.0 | 0.0 | 0.00 | 0.00 | 0.00 | 92 | 1004.6 | |
| 20260505073713 | 89 | 0.0 | 0.0 | 0.00 | 0.00 | 0.00 | 92 | 1004.6 | |
| 20260505073512 | 89 | 0.0 | 0.0 | 0.00 | 0.00 | 0.00 | 91 | 1004.6 | |
| 20260505073311 | 89 | 0.0 | 0.0 | 0.00 | 0.00 | 0.00 | 92 | 1004.5 | |
| 20260505073110 | 89 | 0.0 | 0.0 | 0.00 | 0.00 | 0.00 | 92 | 1004.5 | |
| 20260505072909 | 89 | 0.0 | 0.0 | 0.00 | 0.00 | 0.00 | 91 | 1004.4 | |
| 20260505072708 | 89 | 0.0 | 0.0 | 0.00 | 0.00 | 0.00 | 91 | 1004.3 | |
| 20260505072508 | 89 | 0.0 | 0.0 | 0.00 | 0.00 | 0.00 | 90 | 1004.3 | |
| 20260505072307 | 89 | 0.0 | 0.0 | 0.00 | 0.00 | 0.00 | 90 | 1004.3 | |
| 20260505072106 | 90 | 0.0 | 0.0 | 0.00 | 0.00 | 0.00 | 87 | 1004.3 | |
| 20260505071905 | 89 | 0.0 | 0.0 | 0.00 | 0.00 | 0.00 | 88 | 1004.3 | |
| 20260505071704 | 89 | 0.0 | 0.0 | 0.00 | 0.00 | 0.00 | 88 | 1004.2 | |
| 20260505071503 | 90 | 0.0 | 0.0 | 0.00 | 0.00 | 0.00 | 87 | 1004.3 | |
| 20260505071302 | 89 | 0.0 | 0.0 | 0.00 | 0.00 | 0.00 | 88 | 1004.2 | |
| 20260505071101 | 89 | 0.0 | 0.0 | 0.00 | 0.00 | 0.00 | 89 | 1004.3 | |
| 20260505070900 | 89 | 0.0 | 0.0 | 0.00 | 0.00 | 0.00 | 89 | 1004.2 | |
| 20260505070659 | 90 | 0.0 | 0.0 | 0.00 | 0.00 | 0.00 | 88 | 1004.2 | |
| 20260505070458 | 90 | 0.0 | 0.0 | 0.00 | 0.00 | 0.00 | 88 | 1004.1 | |
| 20260505070257 | 90 | 0.0 | 0.0 | 0.00 | 0.00 | 0.00 | 87 | 1004.2 | |
| 20260505070056 | 90 | 0.0 | 0.0 | 0.00 | 0.00 | 0.00 | 84 | 1004.1 | |
| 20260505065855 | 91 | 0.0 | 0.0 | 0.00 | 0.00 | 0.00 | 83 | 1004.1 |